San Luis Obispo, CA

12:47 AM PDT on July 24, 2016 (GMT -0700)
San Luis Obispo County-McChesney

Weather History for KSBP - September, 2013

Change the Weather History Date:

Sunday, September 1, 2013

  Actual Average Record
Temperature  
Mean Temperature 74 °F -  
Max Temperature 84 °F 79 °F 105 °F (1955)
Min Temperature 64 °F 52 °F 42 °F (1963)
Cooling Degree Days 9    
Growing Degree Days 24 (Base 50)    
Moisture  
Dew Point 59 °F    
Average Humidity 63    
Maximum Humidity 73    
Minimum Humidity 48    
Precipitation  
Precipitation 0.00 in - - ()
Sea Level Pressure  
Sea Level Pressure 29.90 in    
Wind  
Wind Speed 2 mph (WSW)    
Max Wind Speed 9 mph    
Max Gust Speed -    
Visibility 10 miles    
Events      
Averages and records for this station are not official NWS values.
T = Trace of Precipitation, MM = Missing Value Source: NWS Daily Summary

Daily Weather History Graph

Daily Weather History Graph

Search for Another Location

Airport or City:

Trip Planner

Search our weather history database for the weather conditions in past years. The results will help you decide how hot, cold, wet, or windy it might be!

Date:

Astronomy

Sep. 01, 2013 Rise Set
Actual Time 6:35 AM PDT 7:28 PM PDT
Civil Twilight 6:09 AM PDT 7:54 PM PDT
Nautical Twilight 5:38 AM PDT 8:25 PM PDT
Astronomical Twilight 5:07 AM PDT 8:56 PM PDT
Moon 3:06 AM PDT (9/1) 5:05 PM PDT (9/1)
Length of Visible Light 13h 45m
Length of Day
12h 53m
Waning Crescent, 13% of the Moon is Illuminated
Sep 1
Waning Crescent
Sep 5
New
Sep 12
First Quarter
Sep 19
Full
Sep 26
Last Quarter

Hourly Weather History & Observations

Time (PDT) Temp. Heat Index Dew Point Humidity Pressure Visibility Wind Dir Wind Speed Gust Speed Precip Events Conditions
12:29 AM 71.6 °F - 53.6 °F 53% 29.93 in 10.0 mi Calm Calm - N/A   Scattered Clouds
12:56 AM 68.0 °F - 55.0 °F 63% 29.92 in 10.0 mi Variable 4.6 mph - N/A   Clear
1:56 AM 68.0 °F - 55.9 °F 65% 29.90 in 10.0 mi Calm Calm - N/A   Clear
2:56 AM 66.9 °F - 55.9 °F 68% 29.89 in 10.0 mi Calm Calm - N/A   Clear
3:56 AM 68.0 °F - 55.0 °F 63% 29.88 in 10.0 mi Calm Calm - N/A   Clear
4:56 AM 64.9 °F - 55.0 °F 70% 29.89 in 10.0 mi Calm Calm - N/A   Clear
5:56 AM 64.9 °F - 55.9 °F 73% 29.89 in 10.0 mi Calm Calm - N/A   Clear
6:56 AM 64.9 °F - 55.9 °F 73% 29.91 in 10.0 mi Calm Calm - N/A   Scattered Clouds
7:56 AM 68.0 °F - 55.9 °F 65% 29.92 in 10.0 mi Calm Calm - N/A   Scattered Clouds
8:56 AM 75.0 °F - 57.0 °F 53% 29.91 in 10.0 mi Calm Calm - N/A   Scattered Clouds
9:56 AM 80.1 °F 80.7 °F 59.0 °F 48% 29.92 in 10.0 mi Calm Calm - N/A   Clear
10:56 AM 82.9 °F 84.6 °F 64.9 °F 54% 29.91 in 10.0 mi WSW 8.1 mph - N/A   Scattered Clouds
11:56 AM 82.9 °F 85.4 °F 66.9 °F 58% 29.91 in 10.0 mi SSW 6.9 mph - N/A   Scattered Clouds
12:56 PM 84.0 °F 86.3 °F 66.0 °F 55% 29.90 in 10.0 mi SW 8.1 mph - N/A   Mostly Cloudy
1:56 PM 82.0 °F 85.5 °F 69.1 °F 65% 29.90 in 10.0 mi Variable 6.9 mph - N/A   Clear
2:56 PM 80.1 °F 82.3 °F 66.9 °F 64% 29.89 in 10.0 mi SSW 6.9 mph - N/A   Mostly Cloudy
3:56 PM 80.1 °F 82.1 °F 66.0 °F 62% 29.88 in 10.0 mi WSW 3.5 mph - N/A   Mostly Cloudy
4:56 PM 81.0 °F 83.3 °F 66.9 °F 62% 29.87 in 10.0 mi WSW 5.8 mph - N/A   Mostly Cloudy
5:56 PM 79.0 °F - 66.9 °F 66% 29.87 in 10.0 mi SW 5.8 mph - N/A   Scattered Clouds
6:56 PM 73.9 °F - 57.9 °F 57% 29.88 in 10.0 mi NW 9.2 mph - N/A   Scattered Clouds
7:56 PM 68.0 °F - 55.9 °F 65% 29.89 in 10.0 mi NW 8.1 mph - N/A   Clear
8:56 PM 66.9 °F - 55.9 °F 68% 29.91 in 10.0 mi Variable 4.6 mph - N/A   Clear
9:56 PM 66.9 °F - 55.9 °F 68% 29.91 in 10.0 mi Calm Calm - N/A   Clear
10:56 PM 66.0 °F - 55.0 °F 68% 29.91 in 10.0 mi Calm Calm - N/A   Clear
11:56 PM 66.0 °F - 55.0 °F 68% 29.90 in 10.0 mi Calm Calm - N/A   Clear